{"data":{"norad_id":68940,"epoch":"2026-09-19T19:11:01.863168Z","epoch_age_seconds":79835,"freshness":"FRESH","line1":"1 68940U 26098X   26262.79932712 -.00000172  00000+0  64183-5 0  9997","line2":"2 68940  51.9041 357.3107 0000497  87.9580 272.1439 14.79924492 21521","mean_motion":14.79924492,"eccentricity":4.97e-5,"inclination_deg":51.9041,"raan_deg":357.3107,"arg_perigee_deg":87.958,"mean_anomaly_deg":272.1439,"bstar":6.4183e-6,"rev_number":2152,"period_min":97.30226155349,"perigee_km":629.21420428687,"apogee_km":629.91076961588,"semimajor_km":7007.6994869514,"source":"CELESTRAK","updated_at":"2026-09-20T09:00:24.582232Z"}}